User: anonymous   Login
Location: Santa Barbara
(34.4500°N, 119.7700°W)
Time: 04:57:42
(UTC-07:00)
Language:

Cosmos 1892 Rocket - Orbit

View from above orbital plane
View from above orbital plane
View from above satellite
View from above satellite

Ground track
Ground track

The orbit data is extracted from the following two-line orbital elements,

1 18422U 87088B   16238.21362679  .00000063  00000-0  48899-5 0  9996
2 18422  82.5100  94.2108 0019022 338.4106 160.6458 14.82877586557955
Epoch (UTC): 25 August 2016 05:07:37
Eccentricity: 0.0019022
inclination: 82.5100°
perigee height: 607 km
apogee height: 633 km
right ascension of ascending node: 94.2108°
argument of perigee: 338.4106°
revolutions per day: 14.82877586
mean anomaly at epoch: 160.6458°
orbit number at epoch: 55795

The dashed part of the orbit path shows where the satellite is in the earth's shadow,  

DLR